Location: Glencliff
(36.1226°N, 86.7183°W)
Time: 01:26:00
(UTC+00:00)

Lacrosse 5 - Pass Details

Date: 25 August 2019
Orbit: 715 x 724 km, 57.0° (Epoch: 08 October)

Event Time Altitude Azimuth Distance (km) Brightness Sun altitude
Exits shadow 09:23:48 - 165° (SSE) 2,745 4.7 -21.1°
Reaches altitude 10° 09:26:08 10° 146° (SE) 2,185 4.4 -20.7°
Maximum altitude 09:28:35 14° 117° (ESE) 1,950 4.5 -20.3°
Drops below altitude 10° 09:31:01 10° 87° (E) 2,192 5.3 -19.8°
Sets 09:34:33 0° 62° (ENE) 3,118 6.8 -19.2°
